Погода Софийский Прииск

Погода Софийский Прииск : погода сейчас, прогноз погоды и архив. Всё, что Вы хотите узнать о погоде Софийский Прииск!

Поиск расширенной информации на нашем сайте:

Другие новости

Новости СМИ2

Главная страница сайта

Новости сайта

02.10.2013

Напоминаем, что на нашем новом сайте вы можете получить высокодетализированные прогнозы погоды по пунктам России, СНГ и мира (включающие важные для авиации метеовеличины, такие как направление и скорость ветра, видимость, явления погоды, количество и форма облачности, нижняя и верхняя граница облачности), а также ознакомиться с разнообразными материалами по авиационной метеорологии и подборкой полезных ссылок на эту тему.

Сайт Метеоцентр.Азия посвящён разработке технологий оптимизации авиаметеорологического обслуживания, включая проектирование и перспективное создание нескольких автоматизированных авиаметеорологических систем:
- система выпуска высокодетальных прогностических карт явлений погоды для нижнего воздушного пространства по России и ближнему зарубежью;
- система верификации прогнозов TAF (выпускаемых синоптиками официальных АМСГ РФ и ближнего зарубежья) и AUTOTAF (выпускаемых сайтом Метеоцентр.Азия) - выявление ошибок, онлайн-сопоставление с фактической погодой METAR, автоматическое внесение коррективов в прогнозы при резком отклонении фактической погоды от прогноза, подсчёт оправдываемости прогнозов по элементам и в целом;
- система обработки, анализа и отображения авиаметеорологической информации для применения провайдерами метеорологической информации.

Рекомендуем: Сервис ремонт компьютеров сидорово улучшит качество работы ПК.

Погода Софийский Прииск - сегодня

Время (UTC), дата Ветер
(°,м/с) 
Видим.   Явления Облачность Т
(°С)
Тd
(°С)
f(%) Тe
(°С)
Pmin
(гПа)
dP
(гПа)
Po
(мм)
O2
(г/м3)
Тmin Tmax R s Состояние
почвы
21 23.04.17 100 (В) 20000 м    10/10 1000 м кучево-дожд. 
[Cb cap]
-2 -6.4 72 -5  1016.8  -0.4  682  277  -2.5    0.0  36  равномерный
сухой снег
100% 
00 24.04.17 100 (В) 20000 м    10/10 1000 м кучево-дожд. 
[Cb cap]
+0 -6.1 63 -3  1015.4  -0.4  681  275           
03 24.04.17 090 (В) 20000 м    10/10 1000 м кучево-дожд. 
[Cb cap]
-0.5 -6.1 66 -4  1016.3  0.5  682  276           
06 24.04.17 090 (В) 20000 м    10/10 1000 м кучево-дожд. 
[Cb cap]
-0.1 -5.9 65 -3  1016.6  0.5  682  275           
09 24.04.17 090 (В) 20000 м    10/10 1000 м кучево-дожд. 
[Cb cap]
+0.1 -5.5 66 -2  1017.4  0.7  683  275    +0.9       
12 24.04.17 100 (В) 20000 м    10/6 1000 м кучево-дожд., средняя 
[Cb cap|As trans]
-1.5 -5.7 73 -2  1018.9  0.7  683  277           
15 24.04.17 120 (ЮВ) 20000 м    6/0 верхняя 
[Ci fib]
-1.7 -5.1 78 -3  1019.2  0.3  683  277           
18 24.04.17 080 (В) 20000 м    8/0 средняя 
[As trans]
-4.3 -6.9 82 -4  1019.9  -0.6  683  280           
21 24.04.17 тихо ()   20000 м    8/5 1000 м кучево-дожд., средняя 
[Cb cap|As op]
-3.6 -6.6 80 -4  1018.3  -1  682  279  -5.1      36  равномерный
сухой снег
100% 
00 25.04.17 090 (В) 20000 м    10/4 1000 м кучево-дожд., средняя, верхняя 
[Cb cap|Ac As|Ci fib]
+1 -6.1 59 -2  1014.9  -1.2  681  274           
03 25.04.17 100 (В) 5{12}  20000 м    10/10 1000 м кучево-дожд. 
[Cb cap]
+0.8 -5.7 62 -2  1013.9  -1  680  274           
06 25.04.17 100 (В) 20000 м    10/10 1000 м кучево-дожд. 
[Cb cap]
+1.6 -5.6 59 -1  1012.2  -1.3  680  273           
09 25.04.17 110 (В) 20000 м    10/10 1000 м кучево-дожд. 
[Cb cap]
+0.9 -5.4 63 -1  1012.1  -0.4  679  273    +2       
12 25.04.17 090 (В) 20000 м  слаб. ливневой снег  10/9 1000 м кучево-дожд., верхняя 
[Cb cap|Ci fib]
-0.5 -4.7 73 1012.1  -0.4  679  274           
15 25.04.17 070 (В) 20000 м  {ливн. осадки}  10/8 1000 м кучево-дожд., верхняя 
[Cb cap|Ci fib]
-1.6 -5.5 75 -1  1011.2  -1.2  678  275           
18 25.04.17 060 (СВ) 20000 м  {ливн. осадки}  10/8 1000 м кучево-дожд., средняя 
[Cb cap|As trans]
-3.6 -6.1 83 -3  1010.7  -1.3  677  277           
21 25.04.17 060 (СВ) 20000 м    10/3 1000 м кучево-дожд., средняя 
[Cb cap|As op]
-3.8 -6.6 81 -3  1009.2  -1.3  676  277  -4.6    0.0  35  равномерный
сухой снег
100% 
00 26.04.17 280 (З) 20000 м    10/1 1000 м средняя, верхняя 
[Cu hum|As trans|Ci sp]
+0.9 -5.1 64 1006.6  -0.7  676  272           
03 26.04.17 230 (ЮЗ) 20000 м    10/10 1000 м кучево-дожд. 
[Cb cap]
+3.3 -4.5 57 +4  1005.4  -0.2  675  269           
06 26.04.17 040 (СВ) 20000 м    10/10 1000 м кучево-дожд. 
[Cb cap]
+4.7 -4.6 51 +6  1004.2  -0.6             
09 26.04.17 360 (С) 20000 м    10/10 1000 м кучево-дожд. 
[Cb cap]
+4 -5 52 +5  1004.3  -0.2      +5       
12 26.04.17 тихо ()   20000 м    9/9 1000 м кучево-дожд. 
[Cb cap]
+0.7 -2.9 77 +1  1005.8  0.3  675  271           
15 26.04.17 тихо ()   20000 м    9/9 1000 м кучево-дожд. 
[Cb cap]
-2 -3.4 90 -2  1006.1  -0.7             
18 26.04.17 060 (СВ) 20000 м    10/0 средняя, верхняя 
[As trans|Ci sp]
-2.8 -3.9 92 -2  1005.2  -1.1             
21 26.04.17 060 (СВ) 20000 м    10/0 средняя, верхняя 
[Ac As|Cc]
-2 -5.2 79 -1  1003.7  -1.1    -3.5      33  равномерный
сухой снег
100% 
Время (UTC), дата Ветер
(°,м/с) 
Видим.   Явления Облачность Т
(°С)
Тd
(°С)
f(%) Тe
(°С)
Pmin
(гПа)
dP
(гПа)
Po
(мм)
O2
(г/м3)
Тmin Tmax R s Состояние
почвы

Для получения пояснительной информации подведите курсор к названию столбца.

ПОГОДА Софийский Прииск - архив

Всё, что Вы хотите узнать о погоде Софийский Прииск - удобно и подробно!

Выберите нужную дату (начиная с 1 января 2015* года) и нажмите кнопку "Найти".
Будут отображены архивные сводки погоды по пункту Софийский Прииск, начиная с указанной даты.


Отображать данные в формате CSV (для использования в таблицах Excel)


Внимание! Наш архив погоды предназначен исключительно для личного некоммерческого использования в познавательных целях. Если Вам необходимы официальные справки о состоянии погоды (для производственных, юридических, коммерческих и т.п. целей), обращайтесь в органы Росгидромета.

*Примечание: данная дата относится к архиву по метеостанциям СССР (Россия, СНГ, Балтия).
Архив по метеостанциям Зарубежной Европы и Азии (кроме Китая) хранится 10 дней, по другим регионам земного шара (Китай, Африка, Америка, Австралия, Океания) - 1 день.

Софийский Прииск - район местоположения метеостанции


Название, широта, долгота, высота метеостанции:
Софийский Прииск 52.3°ш. 134°д. 902 м над ур. моря [Российская Федерация]

Дополнительная информация

В oтличие oт бoльшинства пoгoдных сайтoв мы публикуем пoдрoбную метеoинфoрмацию в детальнoм прoфессиoнальнoм фoрмате.

Характеристики температуры и влажнoсти вoздуха измеряются на высoте 2 м в тени вдали oт зданий и деревьев.
Скoрoсть ветра измеряется на высoте 10 м (на урoвне рoста челoвека скoрoсть ветра ниже в 1.5-2 раза). Если метеoстанция нахoдится в гoрoде или в лесу, тo скoрoсть ветра занижена на 2-4 м/с пo сравнению с oткрытым местoм. Скoрoсть ветра над акватoриями крупных рек и oзёр, а также на вершинах хoлмoв на 2-5 м/с выше, чем в oбычных услoвиях.
Атмoсфернoе давление в разных тoчках местнoсти мoжет значительнo oтличаться oт давления на метеoстанции, в зависимoсти oт услoвий рельефа (при пoдъёме на 10 м давление пoнижается примернo на 1 мм рт.ст.).